Hourly Data Report for November 15, 2017

All times are specified in Local Standard Time (LST). Add 1 hour to adjust for Daylight Saving Time where and when it is observed.

GREENWOOD A
NOVA SCOTIA

44°59'00.000" N
64°55'00.000" W
28.00 m
8202000
71397
YZX

Download Data

Hourly Data (November 2017)
Hourly Data Report for November 15, 2017
Temp Definition
°C
Dew Point Temp Definition
°C
Rel Hum Definition
%
Wind Dir Definition
10's deg

Wind Spd Definition
km/h
Visibility Definition
km
Stn Press Definition
kPa
Hmdx Definition


Wind Chill Definition


Weather Definition


TIME
00:00 2.2 -1.8 75 2 15 24.1 102.14     Cloudy
01:00 2.4 -1.6 75 3 9 24.1 102.12     Cloudy
02:00 2.6 -1.1 77 3 9 24.1 102.12     Cloudy
03:00 2.8 -1.4 74 3 11 24.1 102.12     Cloudy
04:00 2.7 -1.3 75 3 9 24.1 102.12     Snow
05:00 2.7 -1.0 77 3 11 24.1 102.10     Cloudy
06:00 2.8 0.4 84 4 9 24.1 102.13     Cloudy
07:00 2.8 -0.9 77 5 11 24.1 102.16     Cloudy
08:00 3.1 -1.1 74 6 9 24.1 102.20     Cloudy
09:00 3.1 -1.1 74 5 19 24.1 102.21     Cloudy
10:00 3.5 -1.7 69 3 20 24.1 102.24     Cloudy
11:00 4.4 0.5 76 6 19 24.1 102.21     Drizzle
12:00 4.5 1.1 79 6 15 24.1 102.15     Cloudy
13:00 5.0 0.1 71 5 13 24.1 102.07     Cloudy
14:00 5.0 0.1 71 5 13 24.1 102.08     Cloudy
15:00 4.9 0.0 71 4 13 24.1 102.05     Cloudy
16:00 4.9 0.0 71 3 11 24.1 102.04     Cloudy
17:00 4.7 -0.8 67 7 7 24.1 102.04     Cloudy
18:00 4.5 -0.8 68 5 17 24.1 102.07     Cloudy
19:00 3.9 -0.4 73 7 15 24.1 102.06     Cloudy
20:00 3.7 -0.9 72 7 11 24.1 102.02     Cloudy
21:00 3.6 -0.7 73 4 7 24.1 102.10     Cloudy
22:00 3.2 -0.7 76 6 4 24.1 102.06     Cloudy
23:00 2.2 -1.3 78 7 7 24.1 102.00     Mainly Clear

Notes on Data Quality.

Legend

  • E = Estimated
  • M = Missing
  • NA = Not Available
  • ‡ = Partner data that is not subject to review by the National Climate Archives
Date modified: